www.pogodaiklimat.ru

Погода и климат >> Архив погоды >> Экваториальная Гвинея >> Malabo


ПОГОДА в Malabo

  • Прогноз погоды в Malabo
  • Монитор погоды в Malabo
  • Климат города

АРХИВ ПОГОДЫ в Malabo

Время (UTC), дата Ветер
(напр.,м/с)
 
Видим.   Явления Облачность Т
(С)
Тd
(С)
f
(%)
Тe
(С)
Тes
(С)
Комфортность P
(гПа)
Po
(гПа)
Тmin
(С)
Tmax
(С)
R
(мм)
R24
(мм)
S
(см)
09 10.12 штиль 0 10 км 8/5 400 м
[Cu med, cong Ac trans]
+30.5 +23.4 66 +41 +46 опасность
перегрева
1012.1
12 10.12 В 2 10 км {гроза} 8/4 420 м
[Cu med, cong Ac trans]
+30.5 +26.2 78 +46 +53 опасность
перегрева
1010.7
15 10.12 ЮЗ 4 9000 м 8/5 400 м
[Cu med, cong Ac trans]
+30.0 +24.4 72 +42 +43 опасность
перегрева
1008.1
18 10.12 штиль 0 9000 м 8/5 400 м
[Sc Ac trans]
+27.5 +25.1 87 +40 +40 очень
душно
1009.6 +30.5
21 10.12 штиль 0 10 км 8/4 400 м
[Sc Ac trans]
+25.5 +24.8 96 +36 +36 очень
душно
1011.9
00 11.12 штиль 0 10 км 5/3 400 м
[Sc Ac trans]
+25.0 +22.7 87 +33 +33 очень
душно
1011.2
03 11.12 штиль 0 10 км гроза без осадков 5/3 400 м
[Cb cap]
+25.0 +23.2 90 +33 +33 очень
душно
1009.7
06 11.12 штиль 0 10 км в посл. час гроза 8/4 400 м
[Cb cap Ac cuf]
+25.0 +23.6 92 +34 +34 очень
душно
1010.5 +24.0
09 11.12 З 3 10 км 8/5 400 м
[Cb cap Ac cuf]
+30.5 +24.9 72 +44 +46 опасность
перегрева
1012.0
12 11.12 ЮЗ 2 10 км 9/5 400 м
[Cu med, cong Ac As]
+30.5 +25.8 76 +45 +49 опасность
перегрева
1010.4
15 11.12 ЮЗ 4 10 км 10/3 400 м
[Cu med, cong Ac As]
+31.0 +25.4 72 +45 +46 опасность
перегрева
1008.5
18 11.12 Ю 2 9000 м 8/3 420 м
[Cu med, cong Ac trans]
+27.0 +24.8 88 +39 +39 очень
душно
1010.0 +30.0
21 11.12 штиль 0 9000 м 8/5 400 м
[Sc Ac trans]
+26.2 +24.4 90 +37 +37 очень
душно
1011.7
00 12.12 штиль 0 10 км 6/5 400 м
[Sc Ac trans]
+26.0 +24.6 92 +37 +37 очень
душно
1010.6
03 12.12 штиль 0 10 км 6/5 400 м
[Sc Ac trans]
+25.0 +23.6 92 +34 +34 очень
душно
1009.7
06 12.12 штиль 0 10 км 9/5 400 м
[Sc Ac As]
+25.3 +23.5 90 +34 +34 очень
душно
1010.4 +25.2
09 12.12 7000 м гроза без осадков н/о +29.1 +25.3 80 +42 +49 опасность
перегрева
1011.8
12 12.12 Ю 3 7000 м {гроза} 9/3 400 м
[Cb cap Ac As]
+30.5 +25.3 74 +44 +49 опасность
перегрева
1010.0
15 12.12 З 5 10 км 8/4 420 м
[Cu med, cong Ac trans]
+31.0 +24.6 69 +44 +45 опасность
перегрева
1008.2
18 12.12 ЮЗ 2 10 км 8/4 400 м
[Sc Ac trans]
+28.0 +25.4 86 +41 +41 опасность
перегрева
1009.6 +31.0
21 12.12 штиль 0 9000 м 4/3 420 м
[Sc Ac trans]
+26.8 +24.8 89 +38 +38 очень
душно
1011.9
00 13.12 штиль 0 9000 м гроза без осадков 5/3 420 м
[Cb cap Ac cuf]
+25.7 +24.5 93 +36 +36 очень
душно
1011.1
03 13.12 штиль 0 8000 м гроза без осадков 10/5 360 м
[Cb cap Ac As]
+24.8 +23.9 95 +34 +34 очень
душно
1009.9
06 13.12 ЮЗ 2 7000 м гроза без осадков 9/4 360 м
[Cb cap Ac As]
+25.5 +23.9 91 +35 +35 очень
душно
1011.2 +23.8
09 13.12 ЮЗ 2 10 км 9/4 400 м
[Sc Ac As]
+29.5 +25.3 78 +43 +46 опасность
перегрева
1012.0
12 13.12 З 2 10 км 5/4 420 м
[Cu med, cong Ac trans]
+30.5 +24.9 72 +44 +53 опасность
перегрева
1010.2
15 13.12 ЮЗ 2 10 км 8/5 400 м
[Cu med, cong Ac trans]
+31.0 +25.4 72 +45 +47 опасность
перегрева
1008.4
18 13.12 штиль 0 10 км 8/5 400 м
[Sc Ac trans]
+28.0 +24.4 81 +39 +39 очень
душно
1009.6 +31.0
21 13.12 штиль 0 10 км 6/4 400 м
[Sc Ac trans]
+26.5 +24.9 91 +38 +38 очень
душно
1011.4
00 14.12 штиль 0 10 км 6/4 400 м
[Sc Ac trans]
+25.5 +24.5 94 +36 +36 очень
душно
1011.2
03 14.12 штиль 0 10 км 6/4 400 м
[Sc Ac trans]
+24.8 +24.1 96 +34 +34 очень
душно
1009.7
06 14.12 штиль 0 10 км 6/4 400 м
[Sc Ac trans]
+25.0 +24.3 96 +35 +35 очень
душно
1010.7 +28.0
09 14.12 ЮЗ 2 10 км 8/5 400 м
[Cu med, cong Ac trans]
+31.4 +24.3 66 +44 +47 опасность
перегрева
1011.7
12 14.12 ЮЗ 3 10 км 9/5 400 м
[Cu med, cong Ac As]
+31.5 +25.1 69 +45 +49 опасность
перегрева
1010.0
15 14.12 ЮЗ 4 9000 м 8/4 420 м
[Cu med, cong Ac trans]
+30.5 +25.6 75 +45 +46 опасность
перегрева
1009.2
18 14.12 ЮЗ 2 9000 м 5/3 420 м
[Cb cap Ac cuf]
+28.5 +24.9 81 +41 +41 опасность
перегрева
1009.6 +32.0
21 14.12 штиль 0 10 км 6/5 400 м
[Sc Ac trans]
+26.5 +24.5 89 +37 +37 очень
душно
1011.3
00 15.12 штиль 0 10 км 6/5 400 м
[Sc Ac trans]
+25.5 +24.8 96 +36 +36 очень
душно
1010.2
03 15.12 штиль 0 10 км 3/3 360 м
[Sc Ac trans]
+24.4 +23.6 95 +33 +33 очень
душно
1008.1
06 15.12 штиль 0 10 км 9/3 400 м
[Cu med, cong Ac As]
+25.1 +24.4 96 +35 +35 очень
душно
1011.4 +23.5
09 15.12 Ю 5 8000 м 5/3 420 м
[Cu med, cong Ac trans]
+30.5 +25.3 74 +44 +48 опасность
перегрева
1012.7
12 15.12 Ю 4 9000 м 6/3 420 м
[Cu med, cong Ac trans]
+31.5 +26.3 74 +48 +54 опасность
перегрева
1010.6
18 15.12 штиль 0 10 км 5/3 420 м
[Sc Ac trans]
+28.5 +24.3 78 +40 +40 очень
душно
1010.2 +30.5
21 15.12 Ю 2 9000 м зарница 3/3 420 м
[Cb cap]
+27.2 +23.7 81 +37 +37 очень
душно
1008.1
00 16.12 штиль 0 8000 м гроза без осадков 8/4 400 м
[Cb cap Ac cuf]
+25.0 +24.3 96 +35 +35 очень
душно
1009.8
03 16.12 штиль 0 8000 м гроза без осадков 8/4 400 м
[Cb cap Ac cuf]
+24.7 +23.7 94 +34 +34 очень
душно
1009.9
06 16.12 штиль 0 7000 м гроза без осадков 8/3 400 м
[Cb cap Ac cuf]
+24.2 +22.6 91 +32 +32 очень
душно
1010.6 +27.0
09 16.12 З 2 10 км {гроза} 4/3 420 м
[Cu med, cong Ac trans]
+31.0 +24.6 69 +44 +52 опасность
перегрева
1011.9
12 16.12 З 3 10 км 4/3 420 м
[Cu med, cong Ac trans]
+32.0 +28.5 82 +54 +63 опасность
перегрева
1010.2
15 16.12 ЮЗ 4 10 км 6/5 400 м
[Cu med, cong Ac trans]
+30.5 +27.1 82 +48 +50 опасность
перегрева
1008.3
18 16.12 ЮЗ 2 10 км 6/5 400 м
[Sc Ac trans]
+28.0 +25.2 85 +41 +41 опасность
перегрева
1010.1 +31.2
21 16.12 штиль 0 10 км 6/5
[Sc Ac trans]
+26.0 +24.6 92 +37 +37 очень
душно
1009.5
03 17.12 штиль 0 10 км 6/4 400 м
[Sc Ac trans]
+26.0 +24.6 92 +37 +37 очень
душно
1009.4
06 17.12 штиль 0 10 км 6/4 400 м
[Sc Ac trans]
+25.8 +24.4 92 +36 +36 очень
душно
1010.2 +24.2

 

Местоположение метеостанции Malabo (Экваториальная Гвинея): широта 3.76 долгота 8.71 высота над уровнем моря 23 м.

В архиве по умолчанию представлена погода в Malabo за последнюю неделю. Архивные данные за месяц целиком и за предыдущие месяцы, начиная с января 2011 года, Вы можете получить, выбрав интересующий диапазон дат из раскрывающегося списка и нажав кнопку "Ввод!".


*Определитесь, кто Вы:
робот инопланетянин человек

Внимание! Время в таблицах - всемирное. Для получения местного времени необходимо прибавить поправку, которая в Malabo равна 1 ч.

Смотрите также архив погоды в соседних городах и на ближайших метеорологических станциях:

Погода в Douala (Камерун) (116 км)
Погода в Kalabar (Нигерия) (141 км)
Погода в Port Harcourt (Нигерия) (223 км)
Погода в Bata (Экваториальная Гвинея) (239 км)
Погода в Enugu (Нигерия) (327 км)
Погода в Bitam (Габон) (360 км)
Погода в Libreville (Габон) (377 км)
Погода в Oyem (Габон) (400 км)
Погода в Makurdi (Нигерия) (442 км)
Погода в Port-Gentil (Габон) (496 км)

Пояснения к столбцам:

Ветер - указаны скорость ветра в м/с - средняя за 10 мин, порывы в срок и между сроками (в фигурных скобках) и направление, откуда дует ветер: С - северный, СВ - северо-восточный, В - восточный, ЮВ - юго-восточный, Ю - южный, ЮЗ - юго-западный, З - западный, СЗ - северо-западный.
Видимость - горизонтальная дальность видимости в метрах или километрах. При видимости от 1 до 10 км при отсутствии осадков обычно наблюдается дымка, при ухудшении видимости до 1 км и менее - туман. В сухую погоду видимость может ухудшаться дымом, пылью или мглою.
Явления - указаны атмосферные явления, наблюдавшиеся в срок или в последний час перед сроком; фигурными скобками обозначены явления, наблюдавшиеся между сроками (за 1-3 часа до срока); квадратными скобками обозначены град или гололедные отложения с указанием их диаметра в мм.
Облачность - указаны через наклонную черту общая и нижняя облачность в баллах и высота нижней границы облаков в метрах; квадратными скобками обозначены формы облаков: Ci - перистые, Cs - перисто-слоистые, Cc - перисто-кучевые, Ac - высококучевые, As - высокослоистые, Sc - слоисто-кучевые, Ns - слоисто-дождевые, Cu - кучевые, Cb - кучево-дождевые. Подробнее классификацию облаков см. в Атласе облаков (PDF).
T - Температура воздуха - температура, измеренная на высоте 2 м над землей.
Td - Температура точки росы - температура, при понижении до которой содержащийся в воздухе водяной пар достигнет насыщения.
f - Относительная влажность воздуха - влажноcть воздуха, измеренная на высоте 2 м над землей.
Te - Эффективная температура - температура, которую ощущает одетый по сезону человек в тени. Характеристика душности погоды. При расчете учитывается влияние влажности воздуха и скорости ветра на теплоощущения человека.
Tes - Эффективная температура на солнце - температура, которую ощущает человек, с поправкой на солнечный нагрев. Характеристика знойности погоды. Зависит от высоты солнца над горизонтом, облачности и скорости ветра. Ночью, в пасмурную погоду, а также при ветре 12 м/с и более поправка равна нулю.
P - Атмосферное давление - приведенное к уровню моря атмосферное давление.
Po - Атмосферное давление - измеренное на уровне метеостанции атмосферное давление.
Tmin - Минимальная температура - минимум температуры воздуха на высоте 2 м над землей.
Tmax - Максимальная температура - максимум температуры воздуха на высоте 2 м над землей.
R - Количество осадков - Количество выпавших осадков за период времени, мм. При наведении курсора мыши на число - период времени, за который выпало указанное количество осадков.
R24 - Количество осадков - Количество выпавших осадков за 24 часа, мм.
S - Снежный покров - Высота снежного покрова, см. При наведении курсора мыши на число - состояние снежного покрова и степень покрытия местности в баллах.